ECHOSTAR 21

Last updated on Jan. 19, 2020, 4:37 a.m. UTC

1 42749U 17032A   20018.59506265  .00000065  00000-0  00000+0 0  9998
2 42749   5.7998 313.4721 0001965 353.8014  34.6505  1.00272686  9646
UTC
Height (km)
Latitude
Longitude
Inclination
Orbital Period
UTC large
Height (km)
Speed (km/s)
/
Latitude / Longitude
Inclination (degrees)
Orbital Period (minutes)
Azimuth
Elevation
Range (km)
Doppler Factor
iOS Compass Heading
iOS Angle

Next 30 passes for location: Hong Kong

Rise time Rise Azimuth (degrees) Set time Set Azimuth (degrees) Duration Max altitude (degrees)

No matching passes for this satellites